Wind_Speed
21 19 16 19 26 25 24 22 23 22 20 23 33 32 29 28 26 23 20 18 13 12 9 9 10 11 13 13 13 14 12 14 15 16 17 19 20 18 13 11 12 12 10
18 29 24 22 27 29 27 26 24 23 23 22 23 33 28 29 29 27 24 20 18 16 15 15 14 15 14 15 17 17 17 18 17 18 18 19 15 16 10 8 12 13 15
20 33 32 28 25 26 31 29 27 25 25 23 23 26 26 29 26 25 24 20 17 15 15 15 17 18 18 19 19 21 21 20 19 19 17 11 5 4 5 8 10 11 13
23 22 33 30 29 25 25 29 28 28 26 26 25 23 23 25 26 22 23 21 21 18 14 10 15 24 23 22 23 23 23 22 22 19 21 22 22 15 9 11 13 12 12
28 20 24 25 28 28 28 31 32 30 31 31 27 25 24 22 21 22 22 20 17 15 15 15 18 29 24 23 23 24 24 23 24 23 23 23 23 22 20 16 16 16 15
29 30 24 20 30 30 29 30 32 33 32 31 30 28 28 27 26 25 24 23 22 21 20 19 25 25 23 23 22 22 22 21 22 22 22 23 22 20 19 21 21 20 16
31 29 29 23 34 32 29 26 25 28 29 28 30 30 30 28 27 27 26 24 24 22 19 20 20 19 20 20 19 19 19 20 20 18 21 23 24 22 23 21 23 18 21
24 29 29 24 29 27 24 26 26 25 23 23 22 27 27 25 21 27 21 21 19 19 19 17 17 18 19 19 18 19 19 20 20 20 19 20 21 24 25 23 23 17 19
4 18 28 27 26 24 24 23 22 22 21 22 21 20 23 25 27 25 21 20 18 17 17 16 19 20 19 20 21 21 22 22 21 21 20 19 19 20 22 23 19 22 19
7 8 18 23 23 22 22 25 22 20 19 18 18 19 20 21 20 17 15 14 14 15 17 20 20 18 19 20 20 21 22 22 21 20 19 19 18 20 23 22 20 20 20
4 7 10 12 15 22 24 22 21 21 20 16 12 14 20 17 16 15 15 15 15 19 22 19 18 19 19 19 19 20 20 21 20 20 18 18 18 18 20 22 21 22 24
3 5 8 10 14 21 23 23 25 25 22 23 23 17 23 17 11 9 11 16 20 18 17 18 19 19 18 19 19 19 20 20 19 19 18 17 17 19 20 19 21 23 20
5 3 2 7 10 19 25 26 25 24 25 21 20 26 22 22 27 31 28 28 21 17 17 17 17 17 18 19 19 19 20 20 19 19 19 19 18 18 17 17 15 15 14
5 3 3 6 11 15 23 26 27 26 26 24 23 24 26 26 22 18 17 15 15 16 17 17 17 18 19 19 19 19 20 20 20 20 19 19 18 17 16 15 13 13 12
13 8 8 8 10 14 19 22 22 23 22 22 21 20 20 18 16 14 13 14 15 16 16 17 17 18 18 19 19 18 18 17 16 15 15 16 15 13 13 13 12 12 12
15 14 15 14 14 15 17 21 24 23 20 20 19 19 19 17 15 14 14 14 14 15 16 17 18 18 18 18 18 16 15 12 12 12 13 13 12 12 12 12 12 12 12
9 13 16 19 18 17 18 20 21 22 22 21 20 19 18 16 16 15 14 14 15 16 16 17 17 18 16 14 13 12 11 11 11 11 10 11 11 11 12 12 12 13 13
17 18 18 17 22 20 18 17 19 22 23 22 21 20 19 17 17 15 14 14 14 16 16 17 16 16 13 11 9 9 9 10 10 10 10 10 9 10 10 11 11 11 10
12 15 17 18 19 23 21 20 22 22 23 23 22 21 19 17 16 15 15 16 16 17 17 16 15 14 12 10 9 8 8 10 10 10 10 9 9 10 10 10 10 9 9
16 17 15 19 16 22 23 24 22 23 24 23 22 19 17 16 16 15 16 16 16 15 15 14 13 12 12 10 9 9 9 10 10 10 10 9 9 9 10 10 10 10 9
11 10 10 10 13 14 24 27 23 23 20 20 19 17 16 16 15 15 16 15 15 15 14 12 13 14 13 11 11 11 10 10 11 11 11 11 10 10 9 10 10 9 10
6 7 9 11 12 13 23 26 23 18 18 18 17 16 16 15 15 16 16 16 16 15 13 13 14 14 14 13 12 11 11 12 11 11 11 11 10 10 9 9 10 9 10
5 2 5 7 10 15 22 22 21 19 18 17 16 15 15 14 14 15 16 16 15 15 14 15 15 14 15 14 12 11 10 10 10 10 11 10 10 10 10 10 10 11 11
5 3 3 6 9 13 16 15 15 16 16 15 15 14 13 12 12 13 14 15 15 15 14 16 16 15 15 15 13 12 11 10 10 10 11 11 12 11 12 12 12 12 12
6 7 7 6 6 8 9 10 11 12 12 13 13 12 11 11 12 11 12 14 13 12 14 14 15 15 16 12 12 12 11 11 10 11 13 14 13 13 13 13 13 13 14
4 4 5 6 6 6 5 4 4 6 8 10 11 12 12 12 12 10 11 13 9 12 13 14 15 15 14 15 14 13 12 12 13 17 17 16 15 15 14 15 15 15 15
Wind_Direction
215 213 211 202 202 209 211 214 213 211 210 215 215 214 217 218 218 220 220 224 222 235 241 243 234 230 237 251 262 264 263 272 275 279 278 278 288 290 295 272 259 271 266
227 209 214 203 203 204 207 216 220 217 213 219 221 214 216 219 219 216 214 219 219 217 222 228 229 235 243 253 256 256 262 265 268 273 283 297 281 302 276 280 269 247 256
242 212 210 210 211 210 215 219 222 220 217 218 218 218 225 226 228 225 220 223 223 230 240 252 261 256 250 249 254 260 263 264 261 268 268 278 254 260 269 265 257 271 278
230 218 218 216 214 224 224 223 222 219 215 216 218 220 221 221 221 224 221 219 221 224 232 253 277 277 265 256 257 259 261 259 264 264 264 262 267 271 278 266 267 263 262
231 213 212 228 230 222 218 217 218 218 223 219 218 213 215 219 216 217 215 214 222 222 230 246 273 257 260 264 267 266 264 261 261 259 257 256 260 263 261 265 259 267 269
222 238 232 236 231 223 218 215 216 218 220 225 225 218 219 222 216 223 221 217 225 225 238 264 258 259 265 271 272 272 271 269 263 260 251 252 256 262 258 258 263 273 252
220 226 232 236 216 214 216 217 219 222 223 226 223 220 217 218 223 224 221 224 232 237 241 247 255 265 271 274 273 272 270 270 268 265 256 252 246 250 253 257 265 254 260
226 223 222 211 206 212 215 218 218 218 218 218 223 222 221 221 228 233 231 232 231 253 253 259 266 269 270 269 271 271 270 269 268 268 264 260 249 248 255 250 258 255 255
153 210 212 215 207 211 213 211 213 214 211 213 216 219 219 219 216 224 226 231 235 245 260 266 273 270 271 274 274 273 273 273 272 269 263 260 257 254 255 246 252 255 251
149 170 197 210 219 228 225 220 225 227 218 214 214 220 219 213 212 221 231 238 249 264 276 276 266 268 273 273 273 272 271 270 273 273 265 258 255 244 254 248 248 259 254
140 181 211 223 222 221 219 223 221 215 214 209 212 234 230 223 222 226 238 251 255 255 258 261 265 270 270 271 271 271 269 268 268 267 263 255 249 247 249 252 252 254 252
146 201 213 235 238 223 221 225 222 227 224 225 224 223 242 220 226 251 256 255 252 257 258 261 268 273 275 275 274 273 272 271 271 270 266 260 249 248 254 254 249 249 249
131 117 259 264 250 230 228 228 226 226 226 221 222 230 241 248 252 250 252 258 255 253 260 269 276 278 277 275 274 273 270 268 265 263 260 255 251 250 249 249 244 245 245
196 210 228 260 257 242 228 225 226 227 227 229 228 231 232 234 236 235 238 246 255 262 269 276 279 280 277 275 273 270 267 263 260 258 254 253 252 243 239 236 231 231 228
201 232 269 270 260 241 231 228 231 230 228 227 223 218 219 224 230 236 241 248 261 272 276 279 280 280 279 277 272 269 265 262 260 256 251 252 244 230 226 225 224 225 227
232 237 248 254 258 250 231 223 224 223 220 217 217 216 219 224 232 238 248 261 270 273 277 280 279 280 283 275 270 267 258 255 248 245 248 247 228 221 216 221 218 219 226
253 247 256 251 250 250 235 221 220 217 216 215 215 218 223 231 239 248 257 265 271 275 275 276 279 282 283 273 266 261 247 239 241 245 240 223 214 215 216 215 222 224 235
267 265 261 263 247 240 231 229 220 217 216 216 217 220 225 232 241 249 259 268 272 272 274 277 278 281 275 260 252 237 227 226 225 229 222 211 208 211 215 224 227 229 229
279 279 263 253 247 234 233 225 225 221 218 220 220 222 226 235 246 256 265 270 273 275 278 277 280 281 273 249 238 231 224 219 216 213 216 218 222 227 227 223 220 219 218
285 273 260 247 246 228 230 225 224 223 224 223 224 226 233 244 252 258 267 274 273 274 276 278 273 269 267 236 228 226 222 222 224 228 233 227 225 225 226 221 216 215 214
294 260 231 220 227 230 224 221 225 227 227 224 225 230 241 251 256 265 271 273 272 272 276 270 262 263 259 235 229 228 233 233 233 232 233 233 227 229 230 222 216 215 214
305 249 228 225 227 225 220 218 224 229 224 224 228 235 245 252 260 266 271 273 271 272 271 260 256 255 249 231 233 240 242 241 239 235 231 232 234 233 235 227 224 221 220
352 262 226 225 205 198 205 215 215 223 224 226 228 234 243 251 260 266 267 267 267 268 269 260 255 253 244 239 237 237 240 247 235 234 234 231 231 230 231 228 227 230 227
33 52 194 191 187 186 198 214 229 229 229 228 229 235 242 250 263 267 268 267 268 272 266 257 254 247 241 236 237 237 235 236 237 231 234 233 233 233 231 230 228 230 232
53 62 82 114 166 197 209 216 219 220 221 223 228 236 245 256 265 269 276 278 278 268 260 258 254 246 242 234 237 238 240 240 239 238 237 239 239 238 237 236 235 235 238
86 77 87 100 121 134 148 168 194 209 227 238 242 246 251 256 268 274 286 289 275 261 255 252 247 242 236 225 230 231 233 236 236 242 242 243 244 244 245 245 244 244 246
Height
1511 1512 1514 1516 1519 1524 1526 1528 1530 1533 1536 1538 1541 1544 1547 1551 1554 1556 1559 1560 1562 1563 1564 1565 1567 1568 1569 1569 1569 1569 1569 1569 1568 1568 1567 1567 1567 1567 1566 1565 1564 1564 1563
1508 1509 1511 1513 1516 1519 1521 1524 1527 1530 1532 1534 1537 1540 1544 1547 1549 1552 1554 1557 1558 1560 1561 1562 1564 1565 1566 1566 1566 1566 1565 1565 1565 1564 1564 1563 1564 1563 1561 1561 1560 1560 1560
1503 1504 1506 1508 1510 1513 1516 1519 1522 1525 1528 1531 1533 1537 1541 1544 1546 1549 1550 1553 1555 1557 1559 1561 1562 1563 1563 1562 1562 1562 1561 1560 1561 1561 1562 1560 1558 1560 1560 1559 1558 1558 1558
1497 1500 1502 1504 1506 1508 1511 1515 1517 1520 1523 1526 1529 1533 1536 1538 1541 1544 1546 1546 1549 1550 1552 1555 1558 1560 1557 1557 1557 1556 1556 1555 1555 1557 1557 1556 1556 1556 1556 1557 1555 1554 1553
1493 1494 1497 1500 1502 1506 1507 1510 1513 1516 1518 1519 1523 1527 1531 1534 1537 1539 1541 1542 1543 1546 1548 1548 1552 1554 1553 1552 1551 1550 1550 1550 1549 1550 1550 1551 1550 1551 1552 1551 1551 1550 1549
1486 1488 1493 1496 1498 1501 1504 1507 1508 1511 1514 1517 1521 1522 1525 1530 1531 1535 1537 1538 1540 1541 1542 1543 1546 1548 1547 1545 1544 1544 1543 1544 1543 1543 1543 1545 1545 1544 1546 1545 1546 1547 1545
1480 1483 1486 1489 1493 1496 1500 1503 1505 1507 1510 1512 1516 1518 1520 1522 1527 1530 1532 1533 1536 1538 1537 1538 1539 1540 1541 1539 1538 1537 1538 1538 1538 1538 1538 1538 1539 1539 1540 1540 1542 1542 1541
1475 1479 1480 1484 1490 1494 1497 1500 1501 1503 1504 1508 1510 1513 1515 1518 1521 1529 1527 1530 1528 1534 1536 1533 1534 1534 1534 1534 1533 1533 1532 1533 1533 1533 1533 1533 1533 1533 1534 1535 1537 1536 1537
1473 1475 1479 1482 1487 1491 1494 1496 1498 1500 1500 1503 1506 1510 1513 1514 1517 1524 1521 1524 1525 1530 1532 1529 1530 1530 1529 1529 1528 1527 1527 1527 1526 1527 1527 1527 1527 1528 1529 1529 1529 1531 1531
1473 1476 1479 1481 1485 1487 1490 1492 1495 1497 1499 1501 1503 1507 1511 1513 1515 1516 1520 1522 1524 1525 1525 1525 1526 1525 1523 1523 1522 1522 1521 1521 1520 1520 1520 1520 1521 1522 1524 1524 1524 1525 1525
1472 1475 1478 1479 1481 1484 1487 1489 1491 1494 1497 1499 1500 1507 1512 1511 1511 1514 1517 1518 1518 1518 1520 1521 1520 1519 1518 1516 1516 1516 1515 1515 1514 1513 1513 1514 1516 1516 1518 1520 1520 1520 1521
1472 1474 1476 1478 1480 1481 1485 1487 1489 1491 1494 1494 1496 1504 1513 1509 1509 1510 1512 1513 1515 1514 1514 1516 1514 1514 1512 1511 1510 1510 1510 1509 1508 1508 1508 1508 1510 1510 1512 1514 1515 1516 1516
1472 1473 1474 1475 1476 1478 1480 1483 1485 1487 1490 1492 1492 1497 1504 1506 1507 1505 1507 1510 1510 1510 1510 1509 1508 1508 1507 1507 1505 1505 1505 1504 1504 1504 1504 1504 1504 1504 1506 1509 1508 1512 1512
1470 1471 1472 1473 1474 1476 1478 1479 1481 1483 1486 1488 1489 1492 1496 1499 1501 1501 1501 1504 1506 1506 1506 1504 1502 1503 1503 1502 1501 1500 1499 1498 1498 1498 1499 1499 1499 1500 1501 1504 1504 1507 1507
1468 1469 1470 1470 1471 1473 1474 1475 1477 1479 1482 1484 1485 1488 1493 1496 1498 1498 1499 1501 1501 1500 1499 1499 1498 1498 1497 1496 1495 1495 1495 1493 1493 1493 1493 1495 1495 1497 1499 1500 1501 1504 1506
1465 1465 1465 1465 1466 1467 1469 1470 1472 1475 1478 1480 1484 1486 1490 1492 1494 1495 1496 1497 1496 1496 1495 1494 1494 1492 1492 1491 1490 1490 1491 1490 1492 1491 1490 1492 1493 1494 1495 1498 1499 1500 1502
1460 1461 1461 1461 1461 1463 1464 1466 1469 1472 1475 1478 1481 1483 1486 1488 1490 1491 1492 1493 1492 1492 1491 1491 1489 1488 1486 1486 1485 1486 1486 1488 1489 1488 1488 1490 1491 1492 1494 1496 1497 1497 1500
1455 1456 1456 1456 1456 1458 1460 1463 1465 1468 1471 1475 1477 1480 1483 1485 1487 1488 1488 1489 1488 1488 1487 1486 1485 1484 1482 1483 1482 1483 1484 1485 1485 1487 1487 1488 1490 1491 1492 1494 1494 1495 1497
1450 1449 1449 1450 1451 1453 1455 1458 1462 1465 1469 1471 1474 1477 1480 1482 1483 1484 1485 1485 1485 1483 1483 1481 1481 1481 1480 1480 1481 1481 1481 1482 1483 1484 1486 1487 1488 1490 1490 1492 1492 1493 1494
1445 1444 1444 1444 1446 1449 1451 1454 1457 1461 1464 1468 1471 1475 1477 1478 1479 1480 1481 1481 1480 1479 1478 1478 1478 1478 1478 1478 1478 1479 1480 1481 1482 1483 1484 1485 1486 1486 1489 1489 1490 1492 1492
1441 1440 1440 1441 1443 1445 1448 1451 1455 1457 1462 1466 1469 1471 1473 1474 1475 1475 1476 1476 1475 1474 1474 1475 1475 1476 1476 1476 1476 1477 1478 1479 1480 1481 1482 1483 1484 1485 1486 1487 1489 1490 1491
1438 1438 1438 1438 1440 1442 1445 1449 1453 1457 1459 1462 1465 1467 1469 1470 1471 1471 1471 1471 1470 1470 1470 1471 1471 1472 1472 1474 1475 1475 1476 1477 1478 1479 1480 1481 1482 1484 1484 1485 1487 1487 1489
1438 1437 1438 1437 1438 1440 1445 1448 1452 1455 1457 1459 1462 1464 1465 1466 1467 1467 1467 1466 1466 1466 1466 1467 1467 1468 1469 1471 1472 1473 1473 1474 1475 1476 1478 1479 1480 1481 1482 1483 1484 1485 1487
1440 1438 1438 1438 1439 1442 1446 1449 1451 1453 1455 1456 1458 1460 1461 1462 1462 1462 1462 1462 1462 1462 1462 1462 1464 1465 1466 1467 1468 1470 1471 1472 1473 1474 1475 1476 1477 1479 1479 1480 1481 1482 1483
1441 1440 1439 1439 1440 1442 1444 1447 1449 1451 1452 1454 1455 1456 1457 1458 1458 1458 1458 1457 1457 1457 1458 1458 1460 1461 1462 1465 1466 1467 1468 1469 1470 1472 1472 1473 1474 1475 1476 1477 1478 1479 1480
1443 1443 1442 1442 1442 1443 1445 1446 1448 1450 1451 1452 1452 1453 1454 1454 1455 1454 1454 1454 1453 1453 1454 1455 1456 1457 1458 1460 1462 1463 1464 1465 1467 1466 1468 1469 1470 1471 1472 1473 1474 1475 1475